Find Kuiper-00200

NORAD ID: 67772 Int'l Des: 2026-030 Owner: KUIP Country: US Constellation: amazon-leo operational
LEOCIRCULAR

Aktuelle Ansicht

3D-Globus wird geladen...

Über Kuiper-00200

Beschreibung wird geladen...

Nächste Überflüge

Passes for default location (London). Set your location on the main map for personalized predictions.

Höhenverlauf

Loading altitude history...

Zweizeiliger Elementsatz

1 67772U 26030J 26145.90674753 .00010031 00000-0 49009-3 0 9999
2 67772 51.8837 211.4153 0002816 22.0935 338.0165 15.18819981 16899
Epoch: 25. Mai 2026 • Age: 18 hours

Aktueller Status

Höhe 526.1 km
Geschwindigkeit 7.60 km/s
Subsatellitenpunkt -45.48°S, 47.03°W
Startdatum 12. Feb. 2026
Alter 0.2 years
Typ internet

Technische Details

Klassifizierung Payload
Masse 490.00 kg
Trockenmasse 490.00 kg
Gesamtmasse 490.00 kg
Länge 1.80 m
Durchmesser 0.70 m
Spannweite 5.00 m
Form Box + 2 pan
Hersteller KUIP
Bus-Typ Kuiper
Phasenstatus In Orbit
Besitzer/Staat KUIP/US

Most Searched